Location: The Saddle
(36.8333°N, 80.3417°W)
Time: 07:00:08
(UTC-05:00)

Vanguard 3 - Pass Details

Date: 15 February 2026
Orbit: 507 x 3205 km, 33.3° (Epoch: 5 March)

Event Time Altitude Azimuth Distance (km) Brightness Sun altitude
Rises 18:55:00 0° 260° (W) 4,276 13.1 -11.3°
Reaches altitude 10° 18:58:35 10° 257° (WSW) 2,891 11.5 -12.0°
Maximum altitude 19:04:54 59° 179° (S) 839 7.2 -13.2°
Enters shadow 19:07:48 20° 105° (ESE) 1,436 7.9 -13.8°
